Weather Roundup
Issued by NWS Springfield, MO

Home | Current Version | Previous Version | Text Only | Print | Product List | Glossary On
Versions: 1 2 3 4 5 6 7 8 9 10 11 12 13 14 15 16 17 18 19 20 21 22 23 24 25 26 27 28 29 30 31 32 33 34 35 36 37 38 39 40 41 42 43 44 45 46 47 48 49 50
000
NZUS99 KSGF 041110
HRRSGF

HOURLY WEATHER
NATIONAL WEATHER SERVICE SPRINGFIELD MO
600 AM CDT FRI SEP 04 2015

......SGF CWA......

CITY           SKY/WX    TMP DP  RH WIND       PRES   REMARKS
SPRINGFIELD    PTCLDY    72  67  84 SE9       30.00R
JOPLIN         PTCLDY    72  66  81 S8        29.97R
WEST PLAINS    CLEAR     68  65  90 CALM      30.03S
ROLLA          PTCLDY    70  66  87 S8        29.99S
OSAGE BEACH    CLEAR     70  64  83 S3        29.99R
BRANSON        PTCLDY    68  66  94 CALM      30.02R

......SURROUNDING SGF CWA......

CITY           SKY/WX    TMP DP  RH WIND       PRES   REMARKS
CHANUTE        PTCLDY    70  68  93 SE6       29.95R
PARSONS        PTCLDY    71  68  90 CALM      29.96R
COFFEYVILLE    PTCLDY    70  68  93 CALM      29.94R
EMPORIA        MOCLDY    70  68  93 S12       29.92S
GROVE OK       PTCLDY    70  70 100 CALM      29.98R
ROGERS AR      CLEAR     71  67  87 SE8       30.01S
SILOAM SPRINGS PTCLDY    70  63  78 E3        29.98S
HARRISON AR    PTCLDY    68  66  93 SE3       30.02R
NEAR YELLVILLE CLEAR     68  63  83 CALM      29.98S

......KANSAS AND MISSOURI......

CITY           SKY/WX    TMP DP  RH WIND       PRES   REMARKS
KANSAS CTY INT PTCLDY    72  67  84 S9        29.93S
DOWNTOWN KC    PTCLDY    76  68  76 S6        29.93R
COLUMBIA       PTCLDY    71  68  90 SE6       29.98S
SEDALIA        PTCLDY    71  67  87 S8        29.98R
ST JOSEPH      PTCLDY    71  67  87 S5        29.92S
ST LOUIS       PTCLDY    77  68  73 CALM      30.00R
SPIRIT OF STL  CLEAR     69  69 100 CALM      29.98R FOG
KIRKSVILLE     CLEAR     68  66  93 S3        29.98S
WICHITA        CLEAR     71  63  75 S8        29.91R
TOPEKA         MOCLDY    74  67  78 S6        29.92R
OLATHE         PTCLDY    70  67  90 SE3       29.94S

......TENNESSEE......

CITY           SKY/WX    TMP DP  RH WIND       PRES   REMARKS
MEMPHIS        CLEAR     76  71  85 CALM      29.98R
NASHVILLE      CLEAR     72  68  87 CALM      30.02R

......ARKANSAS.......

CITY           SKY/WX    TMP DP  RH WIND       PRES   REMARKS
FAYETTEVILLE   CLEAR     64  64 100 CALM      30.01R FOG
FT SMITH       PTCLDY    73  68  84 NE3       29.96R
LITTLE ROCK    PTCLDY    73  69  87 CALM      29.97R

......OKLAHOMA.......

CITY           SKY/WX    TMP DP  RH WIND       PRES   REMARKS
TULSA          CLOUDY    74  69  85 SE6       29.93R
PONCA CITY     CLEAR     76  65  68 S6        29.92R
MCALESTER      PTCLDY    73  66  78 E5        29.95S
OKLAHOMA CITY  MOCLDY    68  65  90 S5        29.93R

......IOWA............

CITY           SKY/WX    TMP DP  RH WIND       PRES   REMARKS
DES MOINES     CLEAR     72  66  81 S7        29.92R
QUAD CITIES    CLEAR     69  66  90 CALM      29.96R

......ILLINOIS........

CITY           SKY/WX    TMP DP  RH WIND       PRES   REMARKS
QUINCY         CLEAR     71  68  90 S6        29.98R
CHICAGO        PTCLDY    69  66  90 CALM      29.98R



USA.gov is the U.S. government's official web portal to all federal, state and local government web resources and services.